GFSCGP_925_rhum_087.txt.gz
RH
25 33 36 27 40 38 38 42 44 37 26 40 43 48 37 33 28 32 30 25 21 24 29 45 82 91 99 100 99 100 96 92 89 100 99 98 100 99 100 100 100 100 100 100
29 37 30 24 27 34 39 44 42 28 26 41 52 44 34 32 29 31 31 30 26 33 54 69 92 100 100 99 98 99 100 99 90 99 98 94 95 100 99 100 100 100 100 98
37 30 27 25 26 29 28 30 30 32 50 48 57 41 28 24 30 31 34 27 23 39 54 71 93 98 98 97 98 99 100 100 88 94 100 100 98 96 100 100 100 100 100 99
47 34 31 28 28 28 40 36 39 49 64 70 62 64 40 35 37 38 36 35 28 34 47 60 82 97 97 97 100 100 100 99 100 94 99 97 99 99 99 99 100 99 100 100
48 44 47 46 43 41 49 56 65 69 81 87 78 90 41 43 46 39 38 34 31 29 45 54 78 85 96 97 100 99 100 100 100 100 99 99 100 98 91 100 100 100 100 100
34 24 32 43 64 48 68 66 63 78 87 97 61 76 52 38 33 35 34 31 24 25 42 47 58 78 96 98 100 98 94 97 100 100 100 99 100 98 98 100 100 100 100 99
29 27 41 53 74 69 75 68 89 96 95 81 55 69 55 36 35 38 33 29 24 23 35 48 62 85 95 96 98 97 96 92 95 94 99 100 98 96 94 96 99 100 100 100
40 41 54 54 54 66 78 68 84 94 92 94 56 73 62 48 48 38 33 30 26 24 27 49 56 79 93 96 97 96 99 93 94 94 96 100 96 100 100 100 98 97 97 98
46 35 34 54 51 53 90 93 68 92 87 96 80 64 46 65 66 56 48 41 46 33 26 45 53 72 89 96 97 98 98 97 96 97 98 99 99 98 95 94 96 88 86 87
45 48 42 38 43 46 65 69 93 100 98 98 75 70 83 84 87 72 50 53 53 51 43 50 56 70 81 89 97 100 100 99 98 97 100 99 100 94 89 89 94 93 89 82
53 57 56 42 48 62 73 94 92 92 99 99 96 81 95 93 90 86 70 50 58 61 63 64 65 69 71 82 92 96 99 100 100 100 100 100 100 98 94 95 93 91 90 89
44 65 76 64 43 43 49 72 83 96 94 100 99 90 91 86 80 77 72 54 61 66 64 72 76 77 83 84 90 95 94 94 98 99 100 99 99 88 89 95 94 88 89 92
39 73 74 64 63 70 82 78 71 86 97 98 96 86 80 82 86 78 79 70 65 73 71 74 81 88 87 86 87 89 89 91 94 93 96 97 98 98 83 94 96 90 86 88
42 61 66 72 73 85 85 77 73 81 100 99 95 76 83 84 86 84 83 81 69 72 74 77 80 84 84 88 90 93 93 91 87 92 98 100 98 96 90 92 92 96 91 89
54 57 56 60 63 65 68 66 61 89 94 100 84 90 73 82 85 87 90 82 73 73 70 73 81 81 82 86 87 90 93 94 94 91 100 100 98 100 98 100 100 100 100 96
65 67 71 66 55 57 59 50 55 60 79 95 90 96 68 72 84 89 88 89 79 77 78 77 78 78 80 84 86 88 91 93 94 98 99 99 100 99 96 98 100 100 99 100
68 78 83 81 68 66 69 54 41 70 76 76 95 86 72 85 82 83 86 91 86 84 82 81 80 80 83 86 88 91 90 90 91 91 91 95 98 97 96 98 100 100 97 97
72 81 92 94 73 80 45 31 29 43 60 60 60 64 79 84 89 91 90 90 91 87 87 84 80 83 86 89 91 91 91 90 90 90 91 93 96 98 99 100 99 98 100 100
72 78 85 89 79 58 44 31 51 59 58 58 68 62 83 78 78 90 85 85 86 86 85 80 81 82 85 88 90 92 91 91 91 92 93 93 93 94 98 99 99 99 99 99
83 75 80 91 90 83 48 48 56 49 68 71 67 76 76 72 93 94 74 79 83 82 79 81 81 82 84 87 87 89 91 92 93 93 94 91 89 92 97 100 99 99 99 100
95 90 95 92 87 76 51 77 63 71 79 78 80 80 76 89 80 77 76 84 81 77 78 78 80 82 86 90 90 93 93 97 97 97 96 96 95 96 98 98 98 100 100 99
82 94 98 92 95 87 80 77 66 87 85 81 82 81 84 77 74 73 71 73 73 75 76 78 80 86 92 95 96 97 98 98 97 99 99 99 100 100 100 100 100 100 100 100
92 84 92 78 77 86 80 84 81 80 87 83 84 76 76 77 76 73 75 74 72 75 79 83 85 90 97 100 99 98 100 99 97 99 100 97 100 100 99 99 99 99 100 100
96 100 99 100 94 96 90 77 76 73 74 73 76 74 73 83 84 83 79 78 78 79 83 87 88 90 94 98 99 99 100 97 95 98 98 97 98 100 100 100 100 100 100 99
100 97 100 100 100 97 98 94 78 74 74 77 71 73 82 83 88 81 78 76 80 85 89 92 92 94 97 100 100 100 100 97 96 100 99 99 99 99 98 100 100 100 100 100
100 100 99 99 100 100 100 100 96 90 92 82 76 79 78 74 78 76 81 84 85 88 88 89 91 93 98 100 100 100 100 100 98 98 100 100 100 99 99 98 99 100 100 100

GFSCGP_925_rhum_090.txt.gz
RH
28 34 41 39 37 37 42 46 45 39 32 30 36 37 47 37 36 35 34 32 32 30 25 21 35 74 82 96 98 100 100 100 99 99 98 100 93 96 98 100 100 97 98 100
30 39 31 27 32 37 42 47 49 37 28 41 46 43 35 35 33 33 33 34 33 33 36 63 90 96 93 98 100 100 100 100 100 99 98 96 97 99 99 99 96 100 92 100
36 30 29 28 30 35 36 42 35 35 43 42 59 32 28 24 26 29 33 32 33 33 31 77 97 97 94 95 97 100 100 100 98 96 98 94 95 98 100 96 100 100 100 99
40 30 29 30 29 28 33 29 32 50 52 62 64 65 35 28 26 29 30 40 39 38 39 71 94 90 91 90 96 98 98 99 98 99 99 97 93 99 99 99 99 100 100 100
51 48 46 40 33 29 42 49 55 67 75 86 81 72 44 33 28 24 22 35 40 38 37 68 89 88 90 91 96 97 98 99 98 97 98 98 99 99 84 99 100 100 99 100
42 26 34 46 72 47 66 59 73 84 83 97 71 68 44 35 31 48 46 31 35 36 34 50 67 83 91 90 96 99 98 97 99 100 98 100 100 98 93 100 100 100 100 100
30 28 41 59 77 67 57 60 87 81 81 87 56 71 48 36 37 67 57 43 39 36 31 52 75 94 90 89 95 100 99 98 99 98 98 99 100 93 86 94 99 100 100 100
43 39 47 54 48 71 74 59 81 79 92 82 60 88 65 55 69 70 65 53 54 52 32 54 68 86 88 87 92 98 100 100 100 98 96 98 100 96 91 80 90 96 100 99
42 36 42 53 57 50 89 79 64 80 85 97 67 70 54 71 70 68 72 69 62 64 58 43 55 75 88 86 92 98 94 91 94 98 99 99 98 100 95 88 89 99 100 97
44 52 48 53 47 63 57 68 85 94 97 92 81 82 85 85 83 74 76 76 73 77 66 37 49 74 88 88 90 92 91 92 93 90 87 86 96 100 99 99 100 99 98 91
55 52 59 45 51 75 76 88 90 82 89 95 98 86 84 86 89 87 75 72 74 82 81 67 68 80 90 88 89 91 92 93 93 92 94 93 94 100 99 98 98 96 94 94
49 69 77 64 62 50 56 79 80 92 90 94 99 79 86 86 87 87 80 76 74 76 84 85 83 86 96 91 91 94 96 94 95 95 94 93 96 100 96 80 83 94 96 93
37 73 58 78 67 60 76 77 74 90 98 97 97 82 81 82 82 83 87 83 75 80 83 84 87 91 94 98 99 98 97 99 98 98 99 99 100 100 95 76 75 74 82 94
49 65 58 70 64 71 82 69 69 82 97 92 93 91 72 75 84 81 92 89 77 78 82 84 86 88 88 93 97 99 100 99 96 99 100 100 99 98 94 87 77 78 76 79
53 64 61 60 58 66 65 68 71 88 83 90 71 90 76 70 75 85 92 85 75 82 81 82 83 85 85 88 91 95 97 99 100 100 100 99 96 98 96 97 92 83 86 84
63 78 66 65 56 60 63 58 60 58 57 73 66 79 69 70 71 85 89 90 87 83 82 79 80 82 85 89 92 92 93 92 94 98 98 99 99 100 100 100 98 93 94 96
68 73 72 70 67 62 61 60 41 38 74 79 95 74 73 91 89 83 94 89 93 93 88 87 84 83 87 92 92 91 89 88 89 90 92 95 97 98 99 99 100 100 100 100
75 75 86 90 72 75 41 34 35 53 51 73 69 64 80 95 94 94 88 91 93 92 92 92 87 86 86 90 92 90 88 89 88 89 87 90 94 95 97 99 100 99 99 99
71 80 85 87 83 57 44 42 63 61 54 68 74 69 91 88 80 95 90 89 93 91 90 87 90 90 88 88 88 90 90 91 88 90 90 90 90 94 98 99 99 98 99 99
84 76 80 91 86 86 50 48 66 58 49 91 87 82 90 86 97 96 89 87 88 84 82 84 85 86 92 93 92 90 92 93 92 94 94 96 95 99 100 100 100 100 100 99
96 94 87 91 78 77 60 83 70 65 75 91 84 82 83 92 88 95 82 83 82 83 82 79 83 90 95 99 95 94 96 95 95 98 97 100 100 100 100 100 100 100 100 99
80 94 97 81 90 90 90 78 78 88 87 86 84 82 86 83 85 90 91 86 72 76 80 85 88 94 98 100 97 97 99 98 99 100 99 100 99 99 100 100 100 100 100 100
86 90 95 90 83 91 83 85 80 81 89 87 86 86 97 100 98 98 95 78 77 80 84 87 89 90 96 100 100 99 100 98 98 98 100 99 100 99 100 100 99 100 100 100
89 96 98 100 100 100 97 93 84 93 88 86 84 96 97 98 97 95 93 92 84 87 87 88 87 89 95 99 100 100 99 97 99 98 99 98 99 100 100 100 100 100 99 97
97 95 96 100 99 100 100 100 100 99 91 81 75 74 80 83 87 80 82 81 83 84 87 89 90 90 95 99 100 100 100 98 98 98 99 100 100 98 100 100 100 100 100 100
98 99 96 100 100 100 99 100 99 94 94 94 92 88 82 76 80 78 83 83 84 86 88 89 92 94 98 100 100 100 100 99 97 96 100 100 99 99 98 98 100 100 100 100

GFSCGP_925_rhum_093.txt.gz
RH
28 34 35 30 32 29 35 39 39 35 29 33 33 31 27 27 28 28 25 23 23 23 20 21 24 27 58 75 84 92 99 99 99 99 100 100 99 99 100 99 99 100 100 100
32 35 28 28 30 31 33 35 36 36 32 32 32 32 27 27 25 23 24 23 23 23 23 24 30 50 67 76 85 95 99 100 100 99 99 99 99 98 100 100 100 100 100 99
25 25 26 28 30 34 33 34 38 33 32 34 43 30 23 20 23 23 24 24 23 24 24 25 43 65 74 78 87 96 99 100 99 99 99 99 100 96 98 99 98 100 100 99
47 26 30 32 30 27 34 28 28 30 37 38 52 42 30 23 23 24 25 32 33 26 25 26 38 65 75 77 87 97 100 100 100 99 100 95 94 95 98 100 99 98 100 98
47 49 37 38 30 26 26 30 30 50 52 63 56 58 29 24 23 45 53 53 47 39 30 29 34 51 69 80 89 97 100 100 100 99 97 94 92 87 95 100 94 100 100 100
39 31 38 34 63 27 53 58 67 70 67 64 46 48 38 33 34 48 61 59 59 50 48 33 31 55 71 80 86 96 100 100 100 100 98 95 92 93 97 100 100 100 100 100
35 30 52 60 65 60 51 52 67 62 71 43 51 58 46 50 68 66 66 62 61 57 60 54 33 60 73 80 88 92 95 99 100 100 99 96 94 99 92 95 99 100 100 100
39 45 48 51 56 61 56 48 54 50 64 64 55 42 46 67 57 54 57 57 56 59 62 65 47 51 71 80 88 91 96 95 99 100 99 98 97 96 90 95 90 97 100 99
39 36 49 51 59 46 67 62 55 66 76 70 50 44 45 58 56 61 59 55 58 63 64 70 60 55 70 78 89 91 92 93 95 96 96 98 99 97 94 97 80 84 93 99
37 62 53 62 48 57 52 59 68 79 83 81 57 64 62 63 69 64 64 62 72 72 75 76 56 50 72 78 84 93 96 93 96 96 97 97 98 97 97 96 95 87 88 100
51 54 64 50 50 66 63 68 76 68 73 72 78 57 76 73 74 74 76 78 81 82 84 80 64 60 77 81 88 96 95 93 96 95 97 98 91 92 94 98 91 89 94 100
53 64 74 71 62 53 58 70 65 60 85 76 84 62 70 72 73 72 73 80 79 83 87 87 86 80 81 86 85 91 89 89 90 90 89 90 92 92 97 100 99 99 99 99
53 63 90 86 59 48 60 64 70 83 87 82 83 56 70 59 59 66 82 77 82 84 87 88 86 90 91 94 97 97 96 92 94 96 95 92 88 89 98 100 88 88 95 97
67 61 56 65 67 61 59 53 61 68 84 67 68 56 49 56 69 67 85 80 86 88 89 88 89 89 90 94 98 100 100 98 99 98 98 99 93 92 100 98 82 74 76 78
60 72 60 57 58 62 58 55 53 66 66 76 53 54 50 54 78 81 85 79 90 90 89 89 90 89 89 92 94 98 100 100 100 100 100 100 100 99 100 100 96 85 77 87
57 75 62 53 57 52 52 43 50 54 53 56 54 63 51 72 70 86 84 84 89 93 90 91 87 87 90 92 93 95 98 99 99 100 100 100 100 100 100 100 100 100 95 83
68 64 54 56 60 49 43 48 34 37 38 56 62 56 61 87 94 96 93 90 94 93 95 92 87 83 85 91 89 90 92 96 94 95 98 99 99 100 100 100 100 100 100 100
71 67 71 66 68 60 37 36 36 45 42 64 63 62 72 91 92 93 93 92 94 92 92 97 95 91 91 91 94 88 88 88 96 93 90 93 97 98 98 99 100 100 100 100
66 70 80 67 61 48 40 59 58 55 45 83 86 76 83 85 80 99 96 93 96 95 91 94 98 98 96 96 94 91 88 89 90 88 88 91 94 94 97 100 100 100 100 100
74 71 68 75 66 66 52 62 64 65 39 81 83 79 89 82 89 99 97 98 92 84 85 84 90 95 97 98 94 91 92 90 91 91 94 96 94 97 100 100 100 100 100 100
84 81 80 79 71 60 82 78 63 53 66 78 81 86 90 96 96 98 88 93 88 77 80 83 86 92 95 94 95 95 93 96 95 94 96 98 96 97 100 100 100 100 100 100
74 81 90 74 81 85 84 69 76 88 89 87 85 85 93 97 97 96 96 94 84 76 79 82 85 90 94 95 93 96 97 98 96 94 94 96 98 98 100 100 100 100 100 100
90 98 95 91 98 100 96 95 94 90 95 97 94 94 91 96 97 97 96 96 92 79 79 79 81 86 92 95 98 97 100 99 97 95 93 92 94 96 98 100 100 98 97 97
90 98 97 98 100 100 100 97 100 97 96 95 92 99 98 95 95 95 94 94 93 85 81 80 80 83 90 94 99 100 100 97 96 96 96 92 93 93 94 96 97 97 95 94
90 83 93 99 95 99 87 98 97 94 94 90 85 79 79 77 79 75 76 76 79 80 81 82 83 87 92 94 98 100 100 93 90 93 95 95 95 93 97 100 100 99 100 100
85 96 92 94 98 96 95 96 96 93 93 90 82 82 84 84 80 75 76 80 81 82 82 83 86 90 95 96 100 100 100 99 92 91 94 99 96 95 94 93 100 100 100 100

GFSCGP_925_rhum_096.txt.gz
RH
22 26 30 25 26 25 24 26 28 23 21 25 24 22 19 17 18 19 19 17 16 15 13 13 13 15 20 26 41 54 69 93 100 100 100 100 100 99 100 96 98 99 99 100
23 23 18 17 21 26 39 43 28 22 24 27 24 23 19 18 19 19 18 17 16 16 15 14 14 15 23 28 41 53 63 96 99 96 92 92 97 98 95 100 95 98 99 99
21 18 16 23 26 35 36 31 27 26 22 22 24 26 22 17 16 15 16 16 17 18 19 16 16 17 22 36 42 52 61 96 98 81 85 93 88 90 94 98 96 98 100 99
22 15 24 30 30 32 31 21 22 25 28 32 27 29 20 18 16 15 20 31 34 35 32 26 20 18 19 35 44 51 67 96 98 90 83 79 78 80 86 90 89 99 100 100
37 31 29 32 24 20 23 17 23 22 22 25 28 37 19 15 18 23 28 39 40 38 36 36 30 22 20 31 48 57 80 95 98 95 78 79 69 62 81 84 94 100 100 100
34 32 28 25 24 22 19 22 27 32 35 52 30 28 19 19 28 39 41 40 40 39 39 38 36 30 24 31 52 67 92 95 98 95 82 78 70 67 77 84 93 100 100 100
36 31 39 32 46 29 30 38 56 58 59 42 28 32 20 32 45 45 45 42 40 41 43 43 41 38 27 40 57 76 94 93 95 93 88 84 74 72 75 83 92 99 100 100
36 41 47 45 36 38 39 34 39 40 36 30 35 38 28 39 34 38 36 37 40 43 45 48 52 50 38 41 56 79 90 90 93 94 91 90 74 88 74 80 92 100 100 100
33 31 26 41 41 34 46 48 36 44 54 48 28 28 30 39 33 36 37 40 47 48 47 57 66 53 44 41 56 79 82 75 89 91 93 94 85 93 78 76 78 86 99 100
25 48 32 47 40 42 38 33 50 48 65 54 35 36 38 39 46 42 42 47 54 52 57 69 73 55 39 42 56 81 83 80 93 91 94 96 95 93 80 81 86 86 95 99
26 33 51 46 39 44 48 47 46 41 50 49 46 42 51 52 48 47 48 59 57 59 65 76 78 75 46 50 67 86 88 88 95 95 93 93 96 94 87 82 87 92 97 99
49 41 50 41 47 31 28 33 37 44 64 56 59 46 50 39 38 49 62 62 57 61 67 78 80 87 73 67 84 88 88 95 94 94 90 95 93 94 94 89 89 90 97 97
44 51 69 72 51 41 44 45 45 54 54 66 66 47 39 28 37 52 79 72 61 63 69 80 82 86 91 96 90 90 94 95 95 93 95 89 80 86 95 96 89 92 92 95
47 45 48 51 49 43 58 51 46 48 57 48 47 36 28 39 54 54 83 77 71 68 80 84 86 88 90 95 98 100 99 93 93 92 88 90 87 88 96 93 84 97 96 87
54 51 45 43 39 37 36 34 35 39 39 49 36 38 37 61 71 69 82 77 80 82 85 94 93 91 90 92 96 99 100 100 100 100 100 99 96 94 95 89 82 87 80 82
67 58 38 47 36 31 32 27 27 30 34 36 37 39 44 59 69 89 90 86 90 94 96 92 97 91 91 93 93 97 100 100 100 99 100 100 100 100 100 100 100 99 99 98
49 42 35 48 36 29 34 35 28 30 33 37 43 41 40 71 83 94 95 95 96 98 99 100 100 100 96 94 92 97 99 100 100 97 97 99 99 100 100 100 100 100 100 100
44 38 40 45 39 36 38 28 34 35 45 46 47 51 65 81 92 94 95 95 98 94 96 100 100 100 100 99 95 91 91 94 98 96 100 99 97 100 100 100 99 100 100 100
48 42 48 45 36 35 47 52 51 48 47 57 71 62 83 78 77 96 97 94 96 99 97 86 96 100 100 99 94 88 89 88 88 91 92 91 98 95 100 100 99 99 100 100
50 48 44 50 42 50 64 50 45 46 48 68 73 69 83 80 95 96 88 96 94 94 77 73 75 82 94 98 99 93 90 91 92 92 93 92 92 94 96 100 98 99 98 98
60 64 64 64 56 52 74 52 42 51 86 77 78 86 86 92 96 96 90 92 98 70 72 71 71 74 84 88 90 90 93 97 98 90 87 92 94 96 96 96 98 95 96 96
58 64 67 63 65 70 93 53 71 98 92 87 89 90 92 92 96 96 96 95 92 66 66 68 71 76 81 85 86 90 90 90 88 91 92 92 96 95 96 95 94 92 93 92
83 87 90 90 97 100 96 99 96 95 96 100 100 99 94 94 96 97 95 94 94 82 68 65 69 74 80 85 86 90 95 91 87 80 80 83 87 90 91 91 89 90 90 88
86 74 93 100 97 90 98 92 95 93 95 95 96 96 93 91 92 91 88 83 74 67 64 64 66 69 76 83 90 91 89 87 85 84 80 80 85 86 86 89 93 93 90 90
74 67 86 100 96 82 84 89 87 88 85 82 76 77 74 68 68 62 62 61 64 64 65 67 70 72 74 80 84 89 88 79 80 83 83 83 83 88 95 100 99 98 99 100
74 91 89 88 95 92 95 94 92 89 87 74 68 68 65 62 64 62 62 65 65 67 68 68 73 78 82 84 91 93 89 84 78 78 83 86 84 82 84 88 97 100 100 100

GFSCGP_925_rhum_099.txt.gz
RH
24 20 18 17 23 23 25 26 34 24 18 21 22 21 15 13 14 15 15 15 15 14 12 11 11 10 11 15 21 31 45 62 87 94 95 97 97 98 99 96 83 76 81 93
23 19 12 14 16 24 28 72 56 30 21 22 21 22 17 15 14 15 15 16 15 14 13 12 12 12 12 13 18 26 40 57 86 92 94 88 88 93 85 85 76 77 80 96
29 14 10 13 16 22 38 56 42 32 24 25 24 25 20 15 14 14 14 14 13 14 15 15 15 14 15 15 22 23 32 47 84 92 80 74 76 82 86 89 80 81 95 100
25 11 14 15 18 18 30 28 30 29 40 50 21 30 18 15 15 14 14 16 19 23 24 23 22 21 18 16 18 27 30 40 86 79 65 64 68 77 76 75 71 96 99 93
32 14 16 19 20 20 24 21 28 33 28 26 24 32 21 15 16 14 18 24 28 28 29 29 28 26 24 19 18 30 34 40 86 76 61 67 62 63 64 63 68 91 100 98
25 16 17 17 18 20 22 23 21 22 21 32 22 24 24 17 14 19 28 29 29 30 32 32 31 31 30 24 20 30 41 55 84 79 65 67 63 56 57 65 77 99 100 100
45 54 19 18 26 27 26 30 47 48 44 40 22 28 20 24 30 33 33 29 28 31 34 35 36 37 41 35 22 31 46 70 86 88 70 66 63 57 57 70 77 100 100 100
63 70 29 29 29 36 29 30 56 56 55 39 22 25 18 23 27 29 27 29 31 34 36 39 42 49 52 44 30 35 51 75 85 91 72 67 63 61 58 69 75 94 100 99
60 38 37 31 25 25 31 38 33 58 39 36 27 29 31 28 28 28 30 34 44 38 41 44 51 60 58 64 36 39 70 80 89 90 74 69 66 62 57 72 78 92 98 100
26 57 28 30 31 26 32 27 47 41 48 36 25 28 49 44 37 32 34 44 48 44 46 52 60 67 70 74 34 45 80 82 89 90 81 75 66 70 64 77 83 87 90 99
22 43 32 32 40 36 34 41 35 31 37 55 55 54 38 35 32 37 46 51 50 51 55 60 69 76 77 87 39 71 78 83 89 92 89 82 71 72 70 76 80 82 88 97
23 37 43 38 24 39 25 37 33 51 47 38 51 66 33 25 30 52 53 56 52 53 57 62 73 80 81 89 92 83 82 90 93 94 93 89 81 76 82 80 79 79 89 92
41 41 45 54 39 43 40 41 28 39 46 52 54 62 23 31 42 62 67 67 61 60 60 66 75 82 84 90 95 98 96 96 97 96 92 91 87 83 87 83 84 89 86 92
60 44 33 46 41 31 47 34 34 36 43 40 36 31 43 56 66 81 81 78 76 76 74 73 81 84 87 90 94 98 100 100 99 98 93 92 90 88 90 85 83 86 86 86
65 82 80 38 26 30 38 45 42 45 33 41 35 32 63 72 83 85 80 80 82 82 82 85 90 88 90 92 95 97 99 100 100 100 100 98 91 92 94 92 88 84 86 90
58 50 44 38 32 30 31 25 23 24 27 29 28 55 51 61 69 87 92 94 96 94 93 94 90 94 93 97 98 99 99 100 100 100 100 100 100 100 100 100 94 98 97 98
49 42 47 44 25 24 40 28 22 26 30 31 47 58 59 75 91 95 96 94 94 94 94 100 100 100 100 100 100 100 100 100 100 100 100 100 100 100 100 100 100 100 100 100
47 32 34 40 31 41 34 28 27 34 42 43 40 46 59 86 95 98 95 93 95 93 87 98 100 99 100 100 100 100 99 99 100 100 100 100 100 100 100 100 100 100 100 100
39 38 36 36 36 38 38 42 43 40 70 49 52 56 75 84 82 96 94 95 97 93 69 68 80 98 100 99 100 100 99 98 99 99 99 100 100 100 100 100 100 100 98 99
35 36 39 39 34 53 88 51 38 36 71 63 58 68 84 85 100 95 94 96 100 90 64 63 66 73 80 98 100 100 99 99 100 99 99 99 99 99 99 100 100 100 94 99
44 50 53 47 43 64 86 59 46 54 99 78 71 74 77 91 94 96 96 98 98 59 57 61 64 70 76 79 96 98 98 100 99 99 96 98 98 99 98 99 100 100 100 96
63 76 60 56 51 74 84 55 80 99 97 89 84 78 86 87 90 93 95 96 94 91 52 55 60 68 75 79 81 92 95 96 97 98 99 88 88 94 93 97 98 96 96 93
79 77 83 90 94 96 82 88 89 88 93 100 95 83 80 90 97 97 95 90 78 54 50 52 56 63 71 77 80 81 90 96 88 86 94 99 94 90 93 96 91 95 95 93
74 56 95 95 92 84 79 72 76 84 94 95 79 75 71 84 87 86 78 68 57 52 53 55 57 59 66 72 77 80 79 77 85 83 77 83 89 93 95 94 97 100 98 97
67 60 76 94 85 80 74 80 75 73 68 66 62 62 61 59 58 54 51 51 53 53 55 58 62 65 68 76 80 80 78 73 72 76 79 81 85 86 95 100 99 99 99 100
67 87 90 95 98 92 93 89 80 82 78 62 60 58 54 52 53 52 52 55 55 58 60 62 67 73 77 82 90 92 89 87 77 77 81 83 81 78 79 86 98 100 100 100